Overview Statistics Trail Chart Weather Telemetry Raw packets
 

This is the latest recevied weather packets stored in our database for station/object VE1DX. If no packets are shown the sender has not sent any weather packets the latest 10 day(s).

<< 62 63 64 65 66 67 68 >>
Time Temp. Humidity Pressure Rain* Wind** Luminosity Snow
1788200716 21.11° C 66% 1014.4 hPa 0 mm - - -
1788200426 21.11° C 63% 1014.4 hPa 0 mm - - -
1788200116 21.11° C 62% 1014.2 hPa 0 mm - - -
1788199816 21.11° C 61% 1014.3 hPa 0 mm - - -
1788199516 21.11° C 63% 1014.2 hPa 0 mm - - -
1788199216 21.11° C 64% 1014.3 hPa 0 mm - - -
1788198916 21.11° C 62% 1014.3 hPa 0 mm - - -
1788198616 21.11° C 61% 1014.2 hPa 0 mm - - -
1788198316 21.11° C 61% 1014.3 hPa 0 mm - - -
1788198016 21.11° C 61% 1014.3 hPa 0 mm - - -
1788197716 21.67° C 62% 1014.3 hPa 0 mm - - -
1788197416 21.11° C 63% 1014.1 hPa 0 mm - - -
1788197116 21.11° C 62% 1014 hPa 0 mm - - -
1788196816 21.11° C 62% 1014.1 hPa 0 mm - - -
1788196517 21.11° C 63% 1014 hPa 0 mm - - -
1788196216 21.11° C 60% 1014.2 hPa 0 mm - - -
1788195916 21.11° C 61% 1014.1 hPa 0 mm - - -
1788195616 21.11° C 59% 1014 hPa 0 mm - - -
1788195321 21.11° C 60% 1014.1 hPa 0 mm - - -
1788195016 21.11° C 58% 1014 hPa 0 mm - - -
1788194716 21.11° C 60% 1014 hPa 0 mm - - -
1788194416 21.11° C 58% 1014 hPa 0 mm - - -
1788194117 21.11° C 59% 1013.9 hPa 0 mm - - -
1788193816 21.11° C 60% 1014.1 hPa 0 mm - - -
1788193516 20.56° C 60% 1014.1 hPa 0 mm - - -

* Rain latest hour (hover to see other rain measurements)
** Current wind speed in m/s (hover to see current wind gust speed)